Погода в Авдеевке

Украина / Донецкая область     48°09′00″N   37°44′13″E
темп.,
°C
ветер,
м/с
пор.,
м/с
влажн.,
%
обл.,
%
осадки,
мм/ч
давл.,
гПа
погр.,
м
17 апреля, сб
сб1700:00+7ююз358313 0.0 1019105
03:00+5ююз369390 0.3 1019160
06:00+4зюз359715 0.3 1020126
09:00+8зюз45575 0.3 1020971
12:00+9зюз565999 0.0 10211338
15:00+11з585077 0.0 10201657
18:00+11зюз5751100 0.0 10201181
21:00+10зюз2361100 0.0 102181
18 апреля, вс
вс1800:00+9зюз2368100 0.0 102181
03:00+8ююз2371100 0.0 102189
06:00+8ююз2369100 0.0 102090
09:00+11ююв3451100 0.0 1020880
12:00+14ююв444172 0.0 10191753
15:00+16юв333676 0.0 10182179
18:00+15юв444021 0.0 10171905
21:00+11ю366093 0.0 1018151
19 апреля, пн
пн1900:00+10ююв2475100 0.0 1017170
03:00+10всв2382100 0.2 1016286
06:00+10всв2484100 0.1 1016367
09:00+10всв338198 0.1 1015473
12:00+12вюв2269100 0.2 1014936
15:00+14в226272 0.3 10131005
18:00+13св2365100 0.1 1012581
21:00+12в4675100 0.1 1011310
20 апреля, вт
вт2000:00+11в4784100 0.0 1010359
03:00+11в51089100 0.3 1007480
06:00+10в51195100 3.4 1003563
09:00+11в51397100 14.2 1000689
12:00+13ююв91494100 6.3 9971047
15:00+13ююз813786 6.5 9991146
18:00+10ю10148493 0.3 1000999
21:00+8ю101680100 0.5 10001405
21 апреля, ср
ср2100:00+10юз91488100 0.3 1002819
03:00+9зюз91484100 0.5 10081270
06:00+8зюз6108828 0.1 1012625
09:00+10юз687541 0.1 1014799
12:00+14зюз7948100 0.3 10152136
15:00+13юз5953100 0.3 10161659
18:00+14юз575561 0.1 1017953
21:00+10ююз498284 1.0 1020219